CW9119 Weather Reports


Display with metric or nautical units.
time (UTC)temp
F
wind
direction
speed
MPH
gust
MPH
rain 1hr
in
rain 24hr
in
rain mn
in
humidity
%
barometer
mb
20260505212112 55 80 0.0 0.0 0.00 0.04 0.04 90 1003.7
20260505211112 55 80 0.0 0.0 0.00 0.04 0.04 90 1003.8
20260505204112 55 80 0.0 0.0 0.01 0.04 0.04 89 1003.6
20260505203112 55 80 0.0 0.0 0.02 0.04 0.04 88 1003.7
20260505202112 56 80 0.0 0.0 0.02 0.04 0.04 88 1003.7
20260505201112 56 80 0.0 0.0 0.03 0.04 0.04 87 1003.7
20260505200112 56 80 0.0 0.0 0.03 0.03 0.03 86 1004.1
20260505194112 57 80 0.0 1.0 0.03 0.03 0.03 85 1004.6
20260505193112 58 91 2.0 7.0 0.02 0.02 0.02 84 1004.6
20260505192112 59 142 0.0 0.0 0.02 0.02 0.02 83 1004.8
20260505191111 60 142 1.0 7.0 0.01 0.01 0.01 82 1004.9
20260505183111 60 30 0.0 0.0 0.00 0.00 0.00 78 1003.8
20260505181111 61 31 0.0 4.0 0.00 0.00 0.00 78 1003.6
20260505174112 62 99 1.0 8.0 0.00 0.00 0.00 78 1003.9
20260505173111 62 57 2.0 10.0 0.00 0.00 0.00 77 1003.9
20260505164110 65 281 2.0 13.0 0.00 0.00 0.00 72 1004.3
20260505152110 66 360 5.0 14.0 0.00 0.00 0.00 67 1004.9
20260505151110 66 30 6.0 13.0 0.00 0.00 0.00 62 1004.8
20260505123109 72 49 2.0 8.0 0.00 0.00 0.00 49 1005.6
20260505122109 74 276 1.0 6.0 0.00 0.00 0.00 45 1005.9
20260505120114 74 261 1.0 6.0 0.00 0.00 0.00 47 1005.9
20260505115114 73 256 3.0 8.0 0.00 0.00 0.00 44 1005.7
20260505114114 74 309 0.0 1.0 0.00 0.00 0.00 44 1005.8
20260505113114 74 279 1.0 6.0 0.00 0.00 0.00 43 1005.8
20260505112114 73 297 1.0 6.0 0.00 0.00 0.00 47 1005.9
20260505111113 72 301 0.0 0.0 0.00 0.00 0.00 46 1006.0
20260505102113 72 193 0.0 4.0 0.00 0.00 0.00 46 1006.7
20260505095113 71 96 2.0 6.0 0.00 0.00 0.00 45 1006.8
20260505093113 69 87 0.0 1.0 0.00 0.00 0.00 44 1006.8
20260505091113 69 88 0.0 2.0 0.00 0.00 0.00 48 1007.3
20260505090112 68 88 0.0 2.0 0.00 0.00 0.00 47 1007.2
20260505085112 68 88 1.0 5.0 0.00 0.00 0.00 47 1007.3
20260505084112 67 68 2.0 7.0 0.00 0.00 0.00 49 1007.3
20260505083112 67 148 2.0 8.0 0.00 0.00 0.00 48 1007.4
20260505081112 66 134 1.0 10.0 0.00 0.00 0.00 50 1007.6
20260505074112 64 155 1.0 7.0 0.00 0.00 0.00 53 1007.9
20260505073112 63 80 0.0 5.0 0.00 0.00 0.00 54 1007.9
20260505072112 62 71 1.0 6.0 0.00 0.00 0.00 57 1007.9
20260505071112 60 70 1.0 5.0 0.00 0.00 0.00 63 1008.0
20260505070112 59 58 0.0 1.0 0.00 0.00 0.00 67 1008.1
20260505064112 57 58 0.0 0.0 0.00 0.00 0.00 80 1007.9
20260505063111 56 58 0.0 0.0 0.00 0.00 0.00 80 1008.2
20260505061111 55 57 0.0 6.0 0.00 0.00 0.00 80 1008.2
20260505060111 55 58 0.0 0.0 0.00 0.00 0.00 81 1008.3
20260505054111 54 58 0.0 0.0 0.00 0.00 0.00 82 1008.0
20260505053111 54 57 0.0 0.0 0.00 0.00 0.00 83 1007.9
20260505052111 54 57 0.0 1.0 0.00 0.00 0.00 84 1007.9
20260505050111 53 57 0.0 0.0 0.00 0.00 0.00 84 1007.9
20260505041111 53 57 0.0 0.0 0.00 0.00 0.00 82 1008.0
20260505040111 53 57 0.0 0.0 0.00 0.00 0.00 82 1008.0
20260505030110 52 57 0.0 0.0 0.00 0.00 0.00 84 1008.6
20260505024110 52 57 0.0 0.0 0.00 0.00 0.00 85 1009.0
20260505023110 52 57 0.0 0.0 0.00 0.00 0.00 85 1009.0
20260505022110 52 57 0.0 0.0 0.00 0.00 0.00 85 1009.3
20260505021110 52 56 0.0 0.0 0.00 0.00 0.00 85 1009.3
20260505020110 52 57 0.0 5.0 0.00 0.00 0.00 84 1009.3
20260505015106 52 157 5.0 7.0 0.00 0.00 0.00 82 1009.9
20260505013106 52 178 0.0 0.0 0.00 0.00 0.00 80 1010.3
20260505011106 52 178 0.0 0.0 0.00 0.00 0.00 80 1010.6
20260505010109 52 180 0.0 0.0 0.00 0.00 0.00 81 1010.8
20260505005109 52 180 0.0 1.0 0.00 0.00 0.00 81 1010.7
20260505002109 52 185 0.0 0.0 0.00 0.00 0.00 81 1010.5
20260505000109 52 185 0.0 0.0 0.00 0.00 0.00 80 1010.3
20260504234109 51 185 0.0 0.0 0.00 0.00 0.00 80 1010.5
20260504233109 51 185 0.0 0.0 0.00 0.00 0.00 79 1010.5
20260504232109 51 185 0.0 0.0 0.00 0.00 0.00 79 1010.5
20260504230109 52 185 0.0 0.0 0.00 0.00 0.00 78 1010.5
20260504224109 52 185 0.0 0.0 0.00 0.00 0.00 77 1010.9
20260504223109 52 185 0.0 0.0 0.00 0.00 0.00 77 1010.9
20260504221109 53 185 0.0 0.0 0.00 0.00 0.00 76 1010.9
20260504220109 53 185 0.0 0.0 0.00 0.00 0.00 76 1011.1